EW7168 Weather Reports


Display with metric or nautical units.
time (UTC)temp
F
wind
direction
speed
MPH
gust
MPH
rain 1hr
in
rain 24hr
in
rain mn
in
humidity
%
barometer
mb
20240616060053 64 0 0.0 2.0 0.00 0.00 0.00 47 1010.1
20240616054557 64 0 0.0 0.0 0.00 0.00 0.00 51 1010.2
20240616053051 65 0 0.0 0.0 0.00 0.00 0.00 50 1010.2
20240616051551 66 0 0.0 0.0 0.00 0.00 0.00 51 1010.2
20240616050113 67 0 0.0 0.0 0.00 0.00 0.00 50 1010.7
20240616044549 67 0 0.0 0.0 0.00 0.00 0.00 48 1010.7
20240616043053 68 0 0.0 0.0 0.00 0.00 0.00 45 1010.8
20240616041552 69 0 0.0 0.0 0.00 0.00 0.00 44 1010.8
20240616040102 70 0 0.0 0.0 0.00 0.00 0.00 40 1010.8
20240616034550 72 0 0.0 0.0 0.00 0.00 0.00 38 1010.6
20240616033100 73 0 0.0 0.0 0.00 0.00 0.00 35 1010.3
20240616031616 74 0 0.0 2.0 0.00 0.00 0.00 36 1009.9
20240616030052 76 0 0.0 0.0 0.00 0.00 0.00 34 1009.5
20240616024600 77 0 0.0 0.0 0.00 0.00 0.00 31 1009.4
20240616023051 79 0 0.0 2.0 0.00 0.00 0.00 29 1009.3
20240616021602 80 53 1.0 3.0 0.00 0.00 0.00 27 1009.3
20240616020052 82 15 0.0 5.0 0.00 0.00 0.00 26 1009.5
20240616014551 83 346 1.0 6.0 0.00 0.00 0.00 24 1009.4
20240616013052 84 0 0.0 0.0 0.00 0.00 0.00 24 1009.1
20240616011554 85 0 0.0 3.0 0.00 0.00 0.00 24 1009.0
20240616010050 86 0 0.0 3.0 0.00 0.00 0.00 27 1009.1
20240616004554 86 0 0.0 1.0 0.00 0.00 0.00 26 1009.1
20240616003056 86 0 0.0 2.0 0.00 0.00 0.00 25 1009.0
20240616001552 86 213 0.0 4.0 0.00 0.00 0.00 25 1008.9
20240616000106 88 167 1.0 5.0 0.00 0.00 0.00 23 1008.8
20240615234551 88 141 2.0 5.0 0.00 0.00 0.00 23 1009.0
20240615233052 87 173 1.0 6.0 0.00 0.00 0.00 25 1009.1
20240615231551 86 0 1.0 5.0 0.00 0.00 0.00 24 1008.9
20240615230055 88 117 2.0 7.0 0.00 0.00 0.00 23 1008.8
20240615224551 89 113 2.0 7.0 0.00 0.00 0.00 22 1009.0
20240615223058 89 116 2.0 9.0 0.00 0.00 0.00 22 1009.3
20240615221554 88 46 1.0 7.0 0.00 0.00 0.00 24 1009.3
20240615220058 89 151 2.0 9.0 0.00 0.00 0.00 21 1009.5
20240615214553 88 0 2.0 8.0 0.00 0.00 0.00 22 1009.6
20240615213052 89 134 3.0 7.0 0.00 0.00 0.00 22 1009.5
20240615211554 88 238 2.0 9.0 0.00 0.00 0.00 24 1009.7
20240615210050 89 200 2.0 9.0 0.00 0.00 0.00 21 1009.9
20240615204551 88 219 2.0 6.0 0.00 0.01 0.00 21 1010.1
20240615203053 87 216 2.0 5.0 0.00 0.01 0.00 23 1010.4
20240615201553 86 88 1.0 5.0 0.00 0.01 0.00 23 1010.6
20240615200053 87 130 2.0 4.0 0.00 0.01 0.00 22 1010.4
20240615194557 87 38 3.0 8.0 0.00 0.01 0.00 23 1010.5
20240615193104 86 156 1.0 6.0 0.00 0.01 0.00 23 1010.8
20240615191556 87 181 2.0 8.0 0.00 0.01 0.00 23 1011.1
20240615190055 86 166 2.0 10.0 0.00 0.01 0.00 23 1011.2
20240615184629 87 170 1.0 8.0 0.00 0.01 0.00 22 1011.4
20240615183053 87 0 1.0 9.0 0.00 0.01 0.00 22 1011.3
20240615181558 86 15 0.0 7.0 0.00 0.01 0.00 24 1011.5
20240615180112 85 217 1.0 6.0 0.00 0.01 0.00 22 1011.8
20240615174551 85 350 2.0 9.0 0.00 0.01 0.00 21 1012.1
20240615173053 85 42 2.0 6.0 0.00 0.01 0.00 23 1012.2
20240615171553 85 44 1.0 5.0 0.00 0.01 0.00 24 1012.2
20240615170116 83 211 1.0 4.0 0.00 0.01 0.00 25 1012.2
20240615164554 83 115 1.0 7.0 0.00 0.01 0.00 28 1012.5
20240615163052 82 69 1.0 5.0 0.00 0.01 0.00 29 1012.4
20240615161554 81 79 1.0 7.0 0.00 0.01 0.00 32 1012.7
20240615160055 80 155 1.0 7.0 0.00 0.01 0.00 35 1012.8
20240615154636 78 215 2.0 4.0 0.00 0.01 0.00 38 1012.9
20240615153053 77 0 0.0 3.0 0.00 0.01 0.00 39 1013.3
20240615151559 75 133 0.0 3.0 0.00 0.01 0.00 44 1013.2
20240615150052 74 0 0.0 3.0 0.00 0.01 0.00 45 1013.4
20240615144601 73 0 1.0 4.0 0.00 0.01 0.00 47 1013.6
20240615143100 70 0 0.0 2.0 0.00 0.01 0.00 51 1013.6
20240615141558 68 206 0.0 2.0 0.00 0.01 0.00 54 1013.7
20240615140050 66 126 0.0 3.0 0.00 0.01 0.00 59 1013.6
20240615134601 64 0 0.0 4.0 0.00 0.01 0.00 61 1013.8
20240615133053 63 0 0.0 2.0 0.00 0.01 0.00 64 1013.8
20240615131605 61 153 1.0 4.0 0.00 0.01 0.00 67 1014.0
20240615130055 59 211 0.0 0.0 0.00 0.01 0.00 75 1013.8
20240615124600 58 0 0.0 0.0 0.00 0.01 0.00 80 1014.2
20240615123104 56 0 0.0 0.0 0.00 0.01 0.00 82 1014.1
20240615121551 55 0 0.0 0.0 0.00 0.01 0.00 84 1014.2
20240615120053 54 0 0.0 0.0 0.00 0.01 0.00 86 1014.2
20240615114553 54 0 0.0 1.0 0.00 0.01 0.00 86 1014.0
20240615113122 55 0 0.0 0.0 0.00 0.01 0.00 86 1014.1
20240615111555 55 0 0.0 0.0 0.00 0.01 0.00 86 1014.0
20240615110054 56 0 0.0 1.0 0.00 0.01 0.00 87 1014.1
20240615104604 56 0 0.0 0.0 0.00 0.01 0.00 88 1014.1
20240615103052 56 0 0.0 0.0 0.00 0.01 0.00 88 1014.1
20240615101550 57 0 0.0 0.0 0.00 0.01 0.00 87 1014.2
20240615100058 57 0 0.0 0.0 0.00 0.01 0.00 87 1014.3
20240615094552 57 0 0.0 0.0 0.00 0.01 0.00 87 1014.5
20240615093052 58 0 0.0 0.0 0.00 0.01 0.00 87 1014.6
20240615091553 58 0 0.0 0.0 0.00 0.01 0.00 86 1014.8
20240615090052 59 0 0.0 0.0 0.00 0.01 0.00 86 1014.9
20240615084606 59 0 0.0 0.0 0.00 0.01 0.00 85 1014.9
20240615083052 60 0 0.0 0.0 0.00 0.01 0.00 84 1014.9
20240615081647 61 0 0.0 1.0 0.00 0.01 0.00 82 1014.9
20240615080058 62 0 0.0 1.0 0.00 0.01 0.00 81 1014.6
20240615074624 62 0 0.0 1.0 0.00 0.01 0.00 79 1014.5
20240615073102 63 78 0.0 3.0 0.00 0.01 0.00 78 1014.6
20240615071607 63 0 0.0 4.0 0.00 0.01 0.00 76 1014.7
20240615070101 64 352 1.0 5.0 0.00 0.01 0.00 73 1014.7
20240615064555 65 25 2.0 8.0 0.00 0.01 0.00 69 1014.8
20240615063101 65 34 2.0 12.0 0.00 0.01 0.00 62 1014.8
20240615061553 65 15 0.0 2.0 0.00 0.01 0.00 58 1014.5